Погода в Торнхилле

Канада     43°48′57″N   79°25′10″W
темп.,
°C
ветер,
м/с
пор.,
м/с
влажн.,
%
обл.,
%
осадки,
мм/ч
давл.,
гПа
погр.,
м
17 мая, вт
вт1723:00+11зсз278969 0.4 1007175
02:00+10зсз512796 0.4 1007495
05:00+6зсз514770 0.0 1008597
08:00+8зсз511735 0.0 1010581
11:00+12сз6105996 0.0 10111450
14:00+11сз586391 0.1 10131208
17:00+10сз510666 0.0 1014951
20:00+10ссз386394 0.0 1015976
18 мая, ср
ср1823:00+8з25735 0.0 1017170
02:00+7сз27695 0.0 1018215
05:00+6сз276817 0.0 1018170
08:00+8всв0160100 0.0 1019193
11:00+13ю234548 0.0 1018984
14:00+14ю4544100 0.0 10151216
17:00+11ю3571100 0.2 1013438
20:00+9юв3594100 2.4 1011312
19 мая, чт
чт1923:00+9юв3697100 1.1 1010369
02:00+9вюв3698100 1.2 1007288
05:00+9юв2599100 0.3 1005196
08:00+10ююз1799100 1.5 1004227
11:00+15з5109097 0.1 1003810
14:00+20з595710 0.1 10041397
17:00+22з594819 0.0 10032113
20:00+19юз11715 0.1 100415
20 мая, пт
пт2023:00+16юз248516 0.0 100499
02:00+15ююз238967 0.0 100477
05:00+14ю31387100 0.0 1004333
08:00+16ю31482100 0.0 1004485
11:00+20ююз41482100 0.1 1004747
14:00+23ю61487100 1.2 1002820
17:00+26юз71667100 0.0 10011266
20:00+24зюз61571100 0.0 10031247
21 мая, сб
сб2123:00+18ссз3108574 0.4 1008467
02:00+17с137099 0.4 1010245
05:00+16с236947 0.0 1013165
08:00+16ссв1167100 0.1 1014168
11:00+17ююз1277100 1.8 1015383
14:00+19ю1274100 2.3 1015592
17:00+21ююв2265100 0.1 1014581
20:00+16вюв248893 2.0 1013183